Weather History for Fredericksburg, TX

Change the Weather History Date:

Sunday, December 1, 2013

  Actual Average (KSAT) Record (KSAT)
Temperature  
Mean Temperature 59 °F 56 °F  
Max Temperature 66 °F 67 °F 82 °F (1894)
Min Temperature 52 °F 45 °F 26 °F (1976)
Degree Days  
Heating Degree Days 6 10  
Month to date heating degree days 10  
Since 1 July heating degree days 221  
Cooling Degree Days 0 1  
Month to date cooling degree days 1  
Year to date cooling degree days 3118  
Growing Degree Days 9 (Base 50)    
Moisture  
Dew Point 55 °F    
Average Humidity 85    
Maximum Humidity 94    
Minimum Humidity 70    
Precipitation  
Precipitation 0.00 in 0.06 in 0.91 in (1902)
Month to date precipitation 0.06  
Year to date precipitation 30.42  
Snow  
Snow 0.00 in - - ()
Month to date snowfall  
Since 1 July snowfall  
Snow Depth -    
Sea Level Pressure  
Sea Level Pressure 30.10 in    
Wind  
Wind Speed 9 mph (SW)    
Max Wind Speed 15 mph    
Max Gust Speed 21 mph    
Visibility 10 miles    
Events      
T = Trace of Precipitation, MM = Missing Value Source: NWS Daily Summary

Daily Weather History Graph

Daily Weather History Graph

Search for Another Location

Airport:

Trip Planner

Search our weather history database for the weather conditions in past years. The results will help you decide how hot, cold, wet, or windy it might be!

Date:

Astronomy

Dec. 01, 2013 Rise Set
Actual Time 7:14 AM CST 5:34 PM CST
Civil Twilight 6:48 AM CST 6:00 PM CST
Nautical Twilight 6:18 AM CST 6:30 PM CST
Astronomical Twilight 5:49 AM CST 6:59 PM CST
Moon 5:39 AM CST (12/1) 4:41 PM CST (12/1)
Length of Visible Light 11h 12m
Length of Day
10h 20m
Waning Crescent, 2% of the Moon is Illuminated
Dec 1
Waning Crescent
Dec 2
New
Dec 9
First Quarter
Dec 17
Full
Dec 25
Last Quarter

Hourly Weather History & Observations

Time (CST) Temp. Dew Point Humidity Pressure Visibility Wind Dir Wind Speed Gust Speed Precip Events Conditions
12:15 AM 58.1 °F 54.1 °F 87% 30.20 in 10.0 mi SSW 10.4 mph - N/A   Overcast
12:35 AM 58.1 °F 54.0 °F 86% 30.19 in 10.0 mi SSW 10.4 mph - N/A   Mostly Cloudy
12:55 AM 57.9 °F 54.0 °F 87% 30.18 in 10.0 mi SSW 11.5 mph - N/A   Overcast
1:15 AM 58.1 °F 54.1 °F 87% 30.19 in 10.0 mi SSW 10.4 mph - N/A   Overcast
1:35 AM 57.6 °F 53.8 °F 87% 30.20 in 10.0 mi SSW 8.1 mph - N/A   Mostly Cloudy
1:55 AM 57.4 °F 53.8 °F 88% 30.19 in 10.0 mi SW 8.1 mph - N/A   Overcast
2:15 AM 57.2 °F 53.6 °F 88% 30.18 in 10.0 mi SW 5.8 mph - N/A   Overcast
2:35 AM 57.2 °F 53.8 °F 88% 30.18 in 10.0 mi SSW 6.9 mph - N/A   Mostly Cloudy
2:55 AM 57.6 °F 53.8 °F 87% 30.17 in 10.0 mi SSW 8.1 mph - N/A   Overcast
3:15 AM 57.6 °F 53.6 °F 87% 30.17 in 10.0 mi SSW 10.4 mph - N/A   Overcast
3:35 AM 57.4 °F 53.6 °F 87% 30.17 in 10.0 mi SW 5.8 mph - N/A   Overcast
3:55 AM 57.2 °F 53.6 °F 88% 30.17 in 10.0 mi SSW 5.8 mph - N/A   Overcast
4:15 AM 57.0 °F 53.6 °F 88% 30.16 in 10.0 mi SSW 8.1 mph - N/A   Overcast
4:35 AM 57.4 °F 53.6 °F 87% 30.15 in 10.0 mi SSW 9.2 mph - N/A   Overcast
4:55 AM 57.6 °F 53.6 °F 87% 30.16 in 10.0 mi SSW 9.2 mph - N/A   Overcast
5:15 AM 56.8 °F 53.4 °F 88% 30.16 in 10.0 mi SW 8.1 mph - N/A   Overcast
5:35 AM 56.3 °F 52.9 °F 88% 30.15 in 10.0 mi SW 9.2 mph - N/A   Mostly Cloudy
5:55 AM 55.8 °F 52.7 °F 89% 30.16 in 10.0 mi SW 5.8 mph - N/A   Scattered Clouds
6:15 AM 55.4 °F 52.5 °F 90% 30.14 in 10.0 mi SSW 5.8 mph - N/A   Clear
6:35 AM 54.9 °F 52.2 °F 91% 30.15 in 10.0 mi SW 4.6 mph - N/A   Clear
6:55 AM 54.7 °F 52.2 °F 91% 30.15 in 10.0 mi Calm Calm - N/A   Scattered Clouds
7:15 AM 52.7 °F 50.7 °F 93% 30.16 in 10.0 mi Calm Calm - N/A   Scattered Clouds
7:35 AM 54.5 °F 52.7 °F 94% 30.16 in 10.0 mi SSW 3.5 mph - N/A   Overcast
7:55 AM 55.4 °F 52.7 °F 91% 30.16 in 10.0 mi SSW 4.6 mph - N/A   Mostly Cloudy
8:15 AM 56.5 °F 53.6 °F 90% 30.17 in 10.0 mi SW 6.9 mph - N/A   Overcast
8:35 AM 57.6 °F 54.5 °F 90% 30.16 in 10.0 mi SSW 6.9 mph - N/A   Overcast
8:55 AM 58.5 °F 55.2 °F 89% 30.16 in 10.0 mi SW 6.9 mph - N/A   Overcast
9:15 AM 59.5 °F 55.6 °F 87% 30.17 in 10.0 mi SW 9.2 mph - N/A   Overcast
9:35 AM 60.3 °F 55.6 °F 85% 30.18 in 10.0 mi SW 12.7 mph - N/A   Overcast
9:55 AM 60.8 °F 55.8 °F 83% 30.17 in 10.0 mi SSW 11.5 mph - N/A   Overcast
10:15 AM 60.8 °F 55.8 °F 83% 30.17 in 10.0 mi SW 12.7 mph 20.7 mph N/A   Overcast
10:35 AM 60.8 °F 55.9 °F 84% 30.17 in 10.0 mi SW 10.4 mph - N/A   Overcast
10:55 AM 60.8 °F 55.8 °F 83% 30.17 in 10.0 mi SW 10.4 mph - N/A   Overcast
11:15 AM 61.3 °F 55.8 °F 82% 30.17 in 10.0 mi SW 13.8 mph - N/A   Overcast
11:35 AM 61.5 °F 56.1 °F 82% 30.16 in 10.0 mi SSW 12.7 mph - N/A   Overcast
11:55 AM 61.7 °F 55.9 °F 81% 30.15 in 10.0 mi SW 11.5 mph - N/A   Overcast
12:15 PM 62.1 °F 55.8 °F 80% 30.15 in 10.0 mi SW 10.4 mph - N/A   Overcast
12:35 PM 62.6 °F 55.8 °F 78% 30.13 in 10.0 mi SW 11.5 mph 19.6 mph N/A   Overcast
12:55 PM 63.1 °F 55.9 °F 77% 30.12 in 10.0 mi SW 9.2 mph 12.7 mph N/A   Overcast
1:15 PM 63.1 °F 56.3 °F 78% 30.11 in 10.0 mi SW 11.5 mph - N/A   Overcast
1:35 PM 64.6 °F 56.1 °F 74% 30.10 in 10.0 mi SW 15.0 mph - N/A   Overcast
1:55 PM 64.2 °F 55.8 °F 74% 30.09 in 10.0 mi WSW 12.7 mph - N/A   Mostly Cloudy
2:15 PM 65.7 °F 56.5 °F 72% 30.07 in 10.0 mi SSW 9.2 mph - N/A   Mostly Cloudy
2:35 PM 65.7 °F 56.3 °F 72% 30.06 in 10.0 mi SW 9.2 mph - N/A   Scattered Clouds
2:55 PM 66.0 °F 56.1 °F 70% 30.05 in 10.0 mi SSW 9.2 mph - N/A   Scattered Clouds
3:15 PM 65.8 °F 55.8 °F 70% 30.04 in 10.0 mi South 9.2 mph - N/A   Scattered Clouds
3:35 PM 65.3 °F 55.9 °F 72% 30.04 in 10.0 mi SSW 10.4 mph - N/A   Scattered Clouds
3:55 PM 64.8 °F 56.1 °F 74% 30.04 in 10.0 mi SSW 12.7 mph - N/A   Scattered Clouds
4:15 PM 64.6 °F 56.1 °F 74% 30.04 in 10.0 mi SSW 9.2 mph - N/A   Clear
4:35 PM 63.7 °F 55.8 °F 75% 30.04 in 10.0 mi SSW 11.5 mph - N/A   Clear
4:55 PM 63.0 °F 55.8 °F 77% 30.04 in 10.0 mi SSW 6.9 mph - N/A   Clear
5:15 PM 62.1 °F 55.8 °F 80% 30.04 in 10.0 mi SSW 8.1 mph - N/A   Clear
5:35 PM 61.7 °F 55.6 °F 80% 30.04 in 10.0 mi SW 8.1 mph - N/A   Clear
5:55 PM 61.0 °F 55.4 °F 82% 30.04 in 10.0 mi SW 5.8 mph - N/A   Clear
6:15 PM 60.4 °F 55.4 °F 83% 30.03 in 10.0 mi SSW 5.8 mph - N/A   Clear
6:35 PM 60.3 °F 55.0 °F 83% 30.02 in 10.0 mi SSW 9.2 mph - N/A   Clear
6:55 PM 59.9 °F 55.0 °F 84% 30.02 in 10.0 mi SW 5.8 mph - N/A   Clear
7:15 PM 59.2 °F 54.9 °F 86% 30.02 in 10.0 mi SSW 8.1 mph - N/A   Clear
7:35 PM 58.8 °F 54.7 °F 86% 30.03 in 10.0 mi SW 5.8 mph - N/A   Clear
7:55 PM 58.3 °F 54.5 °F 87% 30.02 in 10.0 mi SW 5.8 mph - N/A   Clear
8:15 PM 58.1 °F 54.5 °F 88% 30.01 in 10.0 mi SW 8.1 mph - N/A   Clear
8:35 PM 58.1 °F 54.5 °F 88% 30.01 in 10.0 mi SW 8.1 mph - N/A   Clear
8:55 PM 57.7 °F 54.5 °F 89% 30.02 in 10.0 mi West 3.5 mph - N/A   Clear
9:15 PM 57.6 °F 54.5 °F 90% 30.03 in 10.0 mi West 4.6 mph - N/A   Clear
9:35 PM 57.4 °F 54.5 °F 90% 30.03 in 10.0 mi West 4.6 mph - N/A   Clear
9:55 PM 57.2 °F 54.5 °F 91% 30.02 in 10.0 mi WSW 6.9 mph - N/A   Clear
10:15 PM 57.2 °F 54.5 °F 91% 30.02 in 10.0 mi WSW 9.2 mph - N/A   Clear
10:35 PM 57.2 °F 54.5 °F 91% 30.01 in 10.0 mi WSW 8.1 mph - N/A   Clear
10:55 PM 57.2 °F 54.5 °F 91% 30.01 in 10.0 mi WSW 8.1 mph - N/A   Clear
11:15 PM 57.4 °F 54.5 °F 90% 29.99 in 10.0 mi WSW 11.5 mph - N/A   Clear
11:35 PM 57.6 °F 54.7 °F 90% 29.99 in 10.0 mi WSW 8.1 mph - N/A   Clear
11:55 PM 57.4 °F 54.5 °F 90% 29.98 in 10.0 mi WSW 8.1 mph - N/A   Clear